Location: Killam
(52.7910°N, 111.8608°W)
Time: 22:59:54
(UTC+00:00)

Vanguard 3 - Pass Details

Date: 25 February 2026
Orbit: 507 x 3205 km, 33.4° (Epoch: 11 March)

Event Time Altitude Azimuth Distance (km) Brightness Sun altitude
Rises 00:36:02 0° 253° (WSW) 5,701 15.3 2.2°
Reaches altitude 10° 00:41:46 10° 238° (WSW) 4,115 12.6 1.4°
Maximum altitude 00:47:59 18° 201° (SSW) 2,836 10.5 0.5°
Drops below altitude 10° 00:52:35 10° 161° (SSE) 2,880 10.0 -0.1°
Sets 00:55:39 0° 141° (SE) 3,477 10.1 -0.6°
